RH
64 57 49 44 44 46 44 40 40 40 35 28 29 35 38 46 54 60 60 67 76 77 77 72 60 49 48 50 51 46 44 46 43 37 37 36 37 37 35 34 48 61 57
58 51 47 48 47 44 40 37 36 30 28 26 31 41 45 49 52 56 67 81 80 81 83 59 48 48 45 44 41 43 51 59 61 59 52 47 44 44 50 42 33 30 37
55 53 51 46 41 36 33 31 30 28 25 26 37 45 43 55 60 70 78 82 77 70 52 49 45 42 40 44 58 64 65 64 68 70 61 60 63 62 56 52 44 37 31
55 51 46 41 34 32 31 31 30 27 26 32 38 39 48 57 63 65 65 59 51 49 47 43 41 41 48 60 64 71 75 78 81 82 80 76 72 72 77 67 58 50 38
52 48 41 35 34 34 34 31 28 29 32 38 41 48 59 57 55 49 48 47 45 43 40 37 38 45 61 67 76 81 84 85 89 91 89 87 81 81 89 85 74 63 50
46 40 36 36 37 36 32 31 33 34 37 44 50 54 61 49 43 47 45 45 43 38 34 35 37 56 63 76 84 92 96 97 96 97 96 94 86 87 91 92 84 75 62
42 37 39 40 37 33 34 36 37 36 42 50 56 61 60 45 46 46 44 43 38 35 36 37 46 62 74 83 88 94 97 99 99 98 97 96 88 98 94 89 84 78 66
37 41 40 37 34 36 38 37 39 43 50 59 63 60 49 45 46 43 43 40 36 36 38 40 56 70 83 89 95 97 98 98 99 98 98 93 87 96 98 92 82 72 64
41 38 36 36 36 37 37 37 42 47 55 60 59 54 51 48 45 43 43 40 37 37 40 45 62 77 88 95 97 98 97 98 99 99 99 96 89 95 93 90 82 75 67
38 36 37 38 38 36 37 40 45 50 53 55 54 53 52 47 45 43 46 41 37 38 42 47 63 79 92 96 99 98 98 99 97 96 93 96 92 93 91 81 76 74 70
38 37 37 38 37 39 41 46 49 53 51 53 55 55 49 45 44 46 49 43 39 40 44 47 59 80 91 97 99 99 99 98 99 93 91 91 89 91 90 84 77 67 60
37 36 37 37 40 44 47 52 56 57 54 53 57 54 47 47 46 51 49 43 41 42 44 47 54 76 88 94 97 99 98 99 99 98 91 89 85 83 82 79 76 73 71
36 33 33 39 44 48 52 55 59 57 54 54 54 54 51 50 49 54 50 42 41 43 43 42 46 68 81 86 94 94 95 98 98 98 98 94 90 88 88 87 85 81 78
33 32 33 40 46 52 56 59 62 58 56 57 55 56 53 51 53 56 51 42 40 44 44 41 39 57 72 73 80 86 82 93 97 97 98 99 99 97 93 92 90 89 89
31 33 37 46 51 57 63 66 68 62 60 59 59 58 54 52 57 57 51 43 40 42 45 43 40 41 56 73 73 79 79 75 96 97 92 92 97 99 99 98 96 93 91
31 35 45 51 57 63 69 70 70 64 61 62 61 61 56 55 60 58 50 43 41 40 46 45 45 41 42 57 72 73 72 74 73 90 98 92 86 82 79 80 81 81 80
37 44 52 57 62 68 75 74 66 61 60 62 64 63 59 59 61 58 50 45 42 39 44 48 49 48 46 46 58 72 75 70 70 74 78 96 92 88 82 77 77 77 76
44 52 56 63 69 74 80 77 69 65 60 62 68 65 63 61 62 59 53 47 45 40 40 46 50 50 51 50 52 60 71 75 72 70 71 69 84 91 87 83 77 73 73
50 55 62 68 76 80 81 75 72 73 72 68 70 66 65 64 62 60 56 51 47 44 40 41 46 51 52 53 53 54 60 73 77 75 71 64 59 63 84 87 83 79 74
55 60 66 73 80 83 78 75 75 75 74 74 73 71 66 65 62 62 60 57 53 49 45 42 42 45 49 52 54 58 61 65 76 80 78 75 63 56 54 57 65 75 76
58 63 68 75 82 86 80 80 79 76 75 72 73 74 68 63 62 64 64 64 60 55 52 48 46 45 45 47 49 51 55 60 65 78 84 81 78 68 53 50 45 44 45
64 69 70 76 82 88 86 83 86 86 82 73 65 67 67 61 61 66 67 70 68 64 60 57 54 50 49 48 51 52 54 55 59 64 75 83 82 79 74 58 48 43 39
70 74 74 77 83 87 89 90 92 94 93 87 73 64 64 62 63 67 69 72 74 73 71 67 64 61 58 54 53 56 57 58 58 61 66 74 81 81 79 75 69 53 44
77 79 79 79 83 88 91 94 95 96 97 97 97 82 67 65 64 65 69 72 76 78 79 78 75 72 69 65 60 59 59 60 60 62 67 72 77 83 82 80 78 75 70
77 81 82 85 88 92 93 94 97 97 97 98 98 98 93 71 66 68 69 73 77 82 85 86 86 83 79 76 71 66 63 62 62 63 66 70 74 78 87 88 84 81 78
80 81 84 88 91 93 95 96 96 98 98 99 99 98 98 94 79 74 74 77 80 86 90 92 93 92 90 85 80 73 68 65 65 65 66 69 72 76 81 86 89 88 87